Satellite: OKEAN-4 Catalog number: 23317 Epoch time: 14093.79145956 Element set: 495 Inclination: 082.5375 deg RA of node: 137.6771 deg Eccentricity: 0.0019982 Arg of perigee: 350.0459 deg Mean anomaly: 124.6424 deg Mean motion: 14.85328053 rev/day Decay rate: 1.936e-05 rev/day^2 Epoch rev: 5206 Checksum: 321
Satellite: NOAA-14 Catalog number: 23455 Epoch time: 14093.43195295 Element set: 705 Inclination: 098.7791 deg RA of node: 178.1899 deg Eccentricity: 0.0008601 Arg of perigee: 248.2127 deg Mean anomaly: 242.4834 deg Mean motion: 14.13961857 rev/day Decay rate: 9.1e-07 rev/day^2 Epoch rev: 99338 Checksum: 341
Satellite: NOAA-15 Catalog number: 25338 Epoch time: 14093.50707935 Element set: 135 Inclination: 098.7498 deg RA of node: 087.5258 deg Eccentricity: 0.0010535 Arg of perigee: 011.9772 deg Mean anomaly: 097.4413 deg Mean motion: 14.25386563 rev/day Decay rate: 3.44e-06 rev/day^2 Epoch rev: 82620 Checksum: 320
Satellite: RESURS Catalog number: 25394 Epoch time: 14093.83283806 Element set: 624 Inclination: 098.4050 deg RA of node: 061.3665 deg Eccentricity: 0.0002613 Arg of perigee: 111.5687 deg Mean anomaly: 304.1405 deg Mean motion: 14.24384835 rev/day Decay rate: 1.15e-06 rev/day^2 Epoch rev: 81773 Checksum: 285
Satellite: FENGYUN1 Catalog number: 25730 Epoch time: 14093.14334847 Element set: 116 Inclination: 098.9079 deg RA of node: 054.7294 deg Eccentricity: 0.0026808 Arg of perigee: 325.4109 deg Mean anomaly: 099.4711 deg Mean motion: 14.11717574 rev/day Decay rate: 3.005e-05 rev/day^2 Epoch rev: 76693 Checksum: 314
Satellite: OKEAN-0 Catalog number: 25860 Epoch time: 14093.83409337 Element set: 213 Inclination: 098.0349 deg RA of node: 058.1813 deg Eccentricity: 0.0000961 Arg of perigee: 094.7846 deg Mean anomaly: 321.0167 deg Mean motion: 14.75138404 rev/day Decay rate: 1.254e-05 rev/day^2 Epoch rev: 79119 Checksum: 299
Satellite: NOAA-16 Catalog number: 26536 Epoch time: 14093.17789700 Element set: 625 Inclination: 098.9978 deg RA of node: 153.1871 deg Eccentricity: 0.0010824 Arg of perigee: 042.9916 deg Mean anomaly: 019.7666 deg Mean motion: 14.13017465 rev/day Decay rate: 1.35e-06 rev/day^2 Epoch rev: 69752 Checksum: 335
Satellite: NOAA-17 Catalog number: 27453 Epoch time: 14093.50188756 Element set: 531 Inclination: 098.3134 deg RA of node: 097.1516 deg Eccentricity: 0.0012156 Arg of perigee: 039.7275 deg Mean anomaly: 123.1923 deg Mean motion: 14.24722774 rev/day Decay rate: 3.21e-06 rev/day^2 Epoch rev: 61205 Checksum: 291
Satellite: NOAA-18 Catalog number: 28654 Epoch time: 14093.49464003 Element set: 17 Inclination: 099.1418 deg RA of node: 071.5229 deg Eccentricity: 0.0015413 Arg of perigee: 113.0037 deg Mean anomaly: 354.9253 deg Mean motion: 14.11983518 rev/day Decay rate: 4.21e-06 rev/day^2 Epoch rev: 45702 Checksum: 283
Satellite: NOAA-19 Catalog number: 33591 Epoch time: 14093.50862794 Element set: 182 Inclination: 098.9386 deg RA of node: 038.7954 deg Eccentricity: 0.0013494 Arg of perigee: 334.2890 deg Mean anomaly: 139.2931 deg Mean motion: 14.11682601 rev/day Decay rate: 2.01e-06 rev/day^2 Epoch rev: 26545 Checksum: 322
/EX SB KEPS @ AMSAT $ORB14093.M Orbital Elements 14093.MISC
HR AMSAT ORBITAL ELEMENTS FOR MANNED AND MISCELLANEOUS SATELLITES FROM WA5QGD FORT WORTH,TX April 3, 2014 BID: ORB14093.M TO ALL RADIO AMATEURS BT
Satellite: HUBBLE Catalog number: 20580 Epoch time: 14093.61010425 Element set: 472 Inclination: 028.4692 deg RA of node: 167.2842 deg Eccentricity: 0.0002989 Arg of perigee: 201.0624 deg Mean anomaly: 274.9397 deg Mean motion: 15.05090680 rev/day Decay rate: 4.264e-05 rev/day^2 Epoch rev: 11347 Checksum: 283
Satellite: ISS Catalog number: 25544 Epoch time: 14094.03144353 Element set: 6 Inclination: 051.6463 deg RA of node: 107.0810 deg Eccentricity: 0.0003978 Arg of perigee: 337.2202 deg Mean anomaly: 062.8076 deg Mean motion: 15.50434083 rev/day Decay rate: -1.38552e-03 rev/day^2 Epoch rev: 87982 Checksum: 282
Satellite: CO-58 Catalog number: 28895 Epoch time: 14093.12230245 Element set: 732 Inclination: 097.8421 deg RA of node: 298.8671 deg Eccentricity: 0.0016353 Arg of perigee: 245.2301 deg Mean anomaly: 114.7200 deg Mean motion: 14.61733658 rev/day Decay rate: 1.476e-05 rev/day^2 Epoch rev: 44928 Checksum: 313
Satellite: FALCON Catalog number: 30776 Epoch time: 14091.50500698 Element set: 835 Inclination: 035.4290 deg RA of node: 228.1268 deg Eccentricity: 0.0001214 Arg of perigee: 327.9234 deg Mean anomaly: 094.5155 deg Mean motion: 15.14985030 rev/day Decay rate: 1.8079e-04 rev/day^2 Epoch rev: 38909 Checksum: 303
Satellite: MAST Catalog number: 31126 Epoch time: 14092.98306991 Element set: 11 Inclination: 097.9088 deg RA of node: 077.8302 deg Eccentricity: 0.0091437 Arg of perigee: 228.2124 deg Mean anomaly: 202.5796 deg Mean motion: 14.55150089 rev/day Decay rate: 1.048e-05 rev/day^2 Epoch rev: 36945 Checksum: 306
Satellite: CAPE1 Catalog number: 31130 Epoch time: 14093.63275415 Element set: 17 Inclination: 097.9292 deg RA of node: 075.0096 deg Eccentricity: 0.0097924 Arg of perigee: 243.9786 deg Mean anomaly: 115.1303 deg Mean motion: 14.54275199 rev/day Decay rate: 1.614e-05 rev/day^2 Epoch rev: 36897 Checksum: 316
Satellite: COMPASS Catalog number: 32787 Epoch time: 14093.77796555 Element set: 893 Inclination: 097.7097 deg RA of node: 149.4270 deg Eccentricity: 0.0015243 Arg of perigee: 070.8969 deg Mean anomaly: 289.3897 deg Mean motion: 14.87399278 rev/day Decay rate: 5.543e-05 rev/day^2 Epoch rev: 32112 Checksum: 373
Satellite: AAUSAT2 Catalog number: 32788 Epoch time: 14093.14413445 Element set: 879 Inclination: 097.7103 deg RA of node: 149.7107 deg Eccentricity: 0.0014669 Arg of perigee: 071.9210 deg Mean anomaly: 288.3604 deg Mean motion: 14.88047472 rev/day Decay rate: 6.064e-05 rev/day^2 Epoch rev: 32108 Checksum: 313
Satellite: DO-64 Catalog number: 32789 Epoch time: 14093.14931725 Element set: 915 Inclination: 097.7278 deg RA of node: 155.5235 deg Eccentricity: 0.0013101 Arg of perigee: 061.3078 deg Mean anomaly: 351.4607 deg Mean motion: 14.92316869 rev/day Decay rate: 1.0362e-04 rev/day^2 Epoch rev: 32130 Checksum: 304
Satellite: CO-66 Catalog number: 32791 Epoch time: 14092.79426642 Element set: 874 Inclination: 097.7091 deg RA of node: 147.3882 deg Eccentricity: 0.0015877 Arg of perigee: 076.3271 deg Mean anomaly: 283.9712 deg Mean motion: 14.86154391 rev/day Decay rate: 5.569e-05 rev/day^2 Epoch rev: 32085 Checksum: 355
Satellite: RS-30 Catalog number: 32953 Epoch time: 14093.86089550 Element set: 797 Inclination: 082.4994 deg RA of node: 247.4196 deg Eccentricity: 0.0018180 Arg of perigee: 319.9208 deg Mean anomaly: 040.0530 deg Mean motion: 12.43044664 rev/day Decay rate: 1.0e-07 rev/day^2 Epoch rev: 26602 Checksum: 299
Satellite: METEOR-M Catalog number: 35865 Epoch time: 14093.70643567 Element set: 406 Inclination: 098.5593 deg RA of node: 143.3456 deg Eccentricity: 0.0002354 Arg of perigee: 335.7543 deg Mean anomaly: 024.3520 deg Mean motion: 14.21916144 rev/day Decay rate: 6.8e-07 rev/day^2 Epoch rev: 23575 Checksum: 297
Satellite: RS-38 Catalog number: 35869 Epoch time: 14093.77941271 Element set: 341 Inclination: 098.5519 deg RA of node: 143.2429 deg Eccentricity: 0.0003548 Arg of perigee: 318.8620 deg Mean anomaly: 154.9605 deg Mean motion: 14.22195700 rev/day Decay rate: 8.4e-07 rev/day^2 Epoch rev: 23579 Checksum: 325
Satellite: JUGNU Catalog number: 37839 Epoch time: 14093.00818598 Element set: 592 Inclination: 019.9621 deg RA of node: 350.5689 deg Eccentricity: 0.0018964 Arg of perigee: 235.8241 deg Mean anomaly: 242.3805 deg Mean motion: 14.12281811 rev/day Decay rate: 5.65e-06 rev/day^2 Epoch rev: 12791 Checksum: 317
Satellite: SRMSAT Catalog number: 37841 Epoch time: 14093.10756804 Element set: 595 Inclination: 019.9733 deg RA of node: 007.7818 deg Eccentricity: 0.0011887 Arg of perigee: 179.4236 deg Mean anomaly: 275.1078 deg Mean motion: 14.10328778 rev/day Decay rate: 5.18e-06 rev/day^2 Epoch rev: 12774 Checksum: 325
Satellite: RAX-2 Catalog number: 37853 Epoch time: 14092.95226664 Element set: 766 Inclination: 101.7170 deg RA of node: 086.7765 deg Eccentricity: 0.0219366 Arg of perigee: 274.2329 deg Mean anomaly: 161.3129 deg Mean motion: 14.88413294 rev/day Decay rate: 9.245e-05 rev/day^2 Epoch rev: 13146 Checksum: 326
Satellite: AUBIESAT Catalog number: 37854 Epoch time: 14092.93333347 Element set: 748 Inclination: 101.7212 deg RA of node: 088.3526 deg Eccentricity: 0.0217464 Arg of perigee: 271.8111 deg Mean anomaly: 149.2734 deg Mean motion: 14.89633765 rev/day Decay rate: 1.0866e-04 rev/day^2 Epoch rev: 13150 Checksum: 308
Satellite: HRBE Catalog number: 37855 Epoch time: 14091.82492079 Element set: 755 Inclination: 101.7214 deg RA of node: 086.1897 deg Eccentricity: 0.0219583 Arg of perigee: 276.0991 deg Mean anomaly: 205.2399 deg Mean motion: 14.88978175 rev/day Decay rate: 1.3696e-04 rev/day^2 Epoch rev: 13131 Checksum: 347
Satellite: RS-39 Catalog number: 38051 Epoch time: 14093.83289228 Element set: 414 Inclination: 051.6295 deg RA of node: 234.6205 deg Eccentricity: 0.0009758 Arg of perigee: 269.9074 deg Mean anomaly: 244.4268 deg Mean motion: 15.50657163 rev/day Decay rate: 8.1756e-04 rev/day^2 Epoch rev: 12253 Checksum: 330
Satellite: E-STAR Catalog number: 38079 Epoch time: 14093.67795156 Element set: 803 Inclination: 069.4573 deg RA of node: 185.7849 deg Eccentricity: 0.0430555 Arg of perigee: 101.9606 deg Mean anomaly: 043.6219 deg Mean motion: 14.92053661 rev/day Decay rate: 1.11625e-03 rev/day^2 Epoch rev: 11228 Checksum: 321
